Tracking 28799 objects as of 18-Apr-2024
HD Live streaming from Space Station
objects crossing your sky now

STARLINK-5756

Track STARLINK-5756 now!
10-day predictions
STARLINK-5756 is classified as:


NORAD ID: 55598
Int'l Code: 2023-020AF
Perigee: 565.4 km
Apogee: 567.2 km
Inclination: 43.0 °
Period: 95.8 minutes
Semi major axis: 6937 km
RCS: Unknown
Launch date: February 12, 2023
Source: United States (US)
Launch site: AIR FORCE EASTERN TEST RANGE (AFETR)
Your satellite tracking list
Your tracking list is empty




NASA's NSSDC Master Catalog

Two Line Element Set (TLE):
1 55598U 23020AF  24108.45264902 -.00004842  00000-0 -34376-3 0  9992
2 55598  43.0024 148.1217 0001296 253.9021 106.1679 15.02521856 65085
Source of the keplerian elements: AFSPC